Location: Aldenham
(51.6667°N, 0.3500°W)
Time: 05:54:51
(UTC+00:00)

Vanguard 3 - Visible Passes

Search period start: 18 February 2026 00:00
Search period end: 28 February 2026 00:00
Orbit: 507 x 3205 km, 33.3° (Epoch: 17 February)

Date Brightness Start Highest point End Pass type
(mag) Time Alt. Az. Time Alt. Az. Time Alt. Az.
18 Feb 9.4 18:03:42 10° SW 18:06:55 13° S 18:09:35 10° SSE visible
19 Feb 9.6 18:54:03 10° SW 18:55:40 11° SSW 18:57:07 10° S visible
21 Feb 9.6 18:19:57 10° SW 18:23:32 14° SSW 18:26:28 10° S visible
24 Feb 10.0 18:37:29 10° SW 18:39:50 11° SSW 18:41:53 10° SSW visible
26 Feb 10.1 18:03:01 10° WSW 18:07:31 14° SSW 18:11:07 10° S visible
